Regional Weather Roundup
Issued by NWS Wilmington, NC

Home | Current Version | Previous Version | Text Only | Print | Product List | Glossary On
Versions: 1 2 3 4 5 6 7 8 9 10 11 12 13 14 15 16 17 18 19 20 21 22 23 24 25 26 27
000
ASUS42 KILM 231513
RWRILM
RWRILM
REGIONAL HOURLY WEATHER ROUNDUP
NATIONAL WEATHER SERVICE WILMINGTON NC
1100 AM EDT MON OCT 23 2017

NOTE: "FAIR" INDICATES FEW OR NO CLOUDS BELOW 12,000 FEET WITH NO
SIGNIFICANT WEATHER AND/OR OBSTRUCTIONS TO VISIBILITY.

...............WFO WILMINGTON COUNTY WARNING AREA...............

......COASTAL NC AND SC COUNTIES......

CITY           SKY/WX    TMP DP  RH WIND       PRES   REMARKS
WILMINGTON     PTSUNNY   78  65  63 S13G26    30.13F
N MYRTLE BEACH CLOUDY    77  68  73 SE13G20   30.10F
MYRTLE BEACH   CLOUDY    77  69  76 SE16      30.11F

......INLAND NC AND SC COUNTIES.......

CITY           SKY/WX    TMP DP  RH WIND       PRES   REMARKS
LUMBERTON      CLOUDY    74  68  81 SE9       30.09F
ELIZABETHTOWN  NOT AVBL
WHITEVILLE     CLOUDY    74  69  83 SE6       30.11S
FLORENCE       LGT RAIN  74  71  91 SE13      30.07F
DARLINGTON     CLOUDY    73  71  93 SE13      30.07F
KINGSTREE      CLOUDY    72  70  94 SE9       30.06F
HARTSVILLE     CLOUDY    72  68  88 SE8G20    30.05F
BENNETTSVILLE  CLOUDY    75  72  88 SE12      30.06F
CONWAY         FAIR      77  68  73 S8G16     30.10S HAZE
GEORGETOWN     PTSUNNY   77  70  78 SE13G21   30.10F
MARION         CLOUDY    73  70  88 SE8       30.09F

....................REST OF NORTH CAROLINA......................

.........EASTERN NC.........

CITY           SKY/WX    TMP DP  RH WIND       PRES   REMARKS
CAPE HATTERAS  SUNNY     80  69  69 SE12      30.19F
JACKSONVILLE   MOSUNNY   79  64  60 SE14G22   30.14F
MOREHEAD CITY  SUNNY     79  67  66 SE10      30.16F
KENANSVILLE    SUNNY     77  64  65 SE13G22   30.14F
NEW BERN       MOSUNNY   77  67  71 SE8       30.16F
ELIZABETH CITY SUNNY     78  64  61 SE10      30.19F

.........CENTRAL NC.........

CITY           SKY/WX    TMP DP  RH WIND       PRES   REMARKS
RALEIGH DURHAM DRIZZLE   66  65  96 SE7       30.13F
ROCKY MOUNT    MOSUNNY   75  64  68 SE8       30.14F
ROANOKE RAPIDS NOT AVBL
FAYETTEVILLE   CLOUDY    71  68  90 SE9       30.10F
HOFFMAN        CLOUDY    73  67  83 SE16      30.07F

.........WESTERN NC.........

CITY           SKY/WX    TMP DP  RH WIND       PRES   REMARKS
CHARLOTTE      LGT RAIN  70  70 100 SE14      30.02F
GREENSBORO     CLOUDY    66  66 100 SE14G22   30.05F
HICKORY        NOT AVBL
BOONE          NOT AVBL
ASHEVILLE      NOT AVBL

.....................REST OF SOUTH CAROLINA.....................

.........EASTERN SC.........

CITY           SKY/WX    TMP DP  RH WIND       PRES   REMARKS
CHARLESTON     CLOUDY    74  72  93 SE10      30.06F
BEAUFORT MCAS  CLOUDY    78  76  93 SE8       30.03F
HILTON HEAD    CLOUDY    79  73  83 S6G15     30.04F

.........CENTRAL SC.........

CITY           SKY/WX    TMP DP  RH WIND       PRES   REMARKS
COLUMBIA       CLOUDY    75  73  93 SE13      30.00F
ORANGEBURG     CLOUDY    73  70  90 SE12      30.02F
SUMTER SHAW    CLOUDY    73  68  83 SE10      30.01F

.........WESTERN SC.........

CITY           SKY/WX    TMP DP  RH WIND       PRES   REMARKS
GREENVILLE     NOT AVBL
ROCK HILL      CLOUDY    70  70 100 SE7G20    30.02F
ANDERSON       HVY RAIN  71  69  93 SE18G24   29.89F FOG
CLEMSON        NOT AVBL
GREENWOOD      CLOUDY    73  71  93 SE15G25   29.94F


...................COASTAL AND OFFSHORE REPORTS..................

................LOCAL PIERS AND NC RESERVE................


STATION/POSITION TIME  SKY/WX   TEMP    WIND        PRES    VSBY
                                AIR SEA DIR/SP/G
                 (UTC)          (F)     (DEG/KT/KT) (MB)    (MI)
JOHNY MRCER PIER 1442            76 75  150/ 15/ 17 1020.7F
NC RESRV MASNBRO 1345            77     180/  5     1021.0
OCEAN CREST PIER NOT AVBL
SPRINGMAID  PIER 1442                               1018.8S


................COASTAL AND OFFSHORE BUOYS................


STATION/POSITION TIME  SKY/WX   TEMP    WIND        PRES    VSBY
                                AIR SEA DIR/SP/G
                 (UTC)          (F)     (DEG/KT/KT) (MB)    (MI)
DIMNDSHOAL 41025 1450            78 81  130/ 14/ 16 1022.1F
WVE H/P(F/S)=  3/ 8 SWL H/P/D(F/S/D)=  2/110/ 8

CAPE LOOKOUT     1500            75     150/  8/  9 1021.1F
ONSLOW BAY 41036 NOT AVBL
ONSLOW BAY 41064 1408            78     160/ 16/ 19 1021.2F
ONSLOW BAY 41159 NOT AVBL
MASNBO INL 41110 1429               74                N/A
WVE H/P(F/S)=  5/ 6

WILM HARBR 41108 1500               74                N/A
WVE H/P(F/S)=  4/ 7

27SE WRITB 41037 1408            77 76  150/ 17/ 23 1021.0F
FRYING PAN 41013 1500            78 78  150/ 17/ 23 1019.8
SUNST NRSH 41024 1408            75 74  150/ 12/ 16 1019.5F
CAPRS NRSH 41029 1408            74 73  160/ 17/ 23 1018.0F
EDISTO     41004 1450            79 80  140/ 19/ 25 1018.1F
WVE H/P(F/S)=  8/ 8



..........OFFSHORE BUOYS BEYOND 100 NM OFFSHORE...........
.....IN A TRIANGLE---HAT TO BERMUDA TO BAHAMAS TO HAT.....


STATION/POSITION TIME  SKY/WX   TEMP    WIND        PRES    VSBY
                                AIR SEA DIR/SP/G
                 (UTC)          (F)     (DEG/KT/KT) (MB)    (MI)
150E HAT   41001 NOT AVBL
W BERMUDA  41048 1500            77 79   90/ 12/ 14 1024.3
ATLANTIC S 41049 1450            79 80   60/ 16/ 17 1021.0F
WVE H/P(F/S)=  5/ 8 SWL H/P/D(F/S/D)=  3/ 40/ 8

E BAHAMAS  41046 1450            81 82   80/ 12/ 16 1019.5S
WVE H/P(F/S)=  5/ 7 SWL H/P/D(F/S/D)=  3/110/ 7

NE BAHAMAS 41047 1500            77 81   90/ 12/ 16 1021.3
120E CANVRL41010 NOT AVBL

END




USA.gov is the U.S. government's official web portal to all federal, state and local government web resources and services.